Regional Weather Roundup
Issued by NWS

Home | Current Version | Previous Version | Graphics & Text | Print | Product List | Glossary On
Versions: 1 2 3 4 5 6 7 8 9 10 11 12 13 14 15 16 17 18 19 20 21 22 23 24 25 26 27 28 29 30 31 32 33 34 35 36 37 38 39 40 41 42 43 44 45 46 47 48 49 50
000
ASUS43 KLOT 310206
RWRIL

ILLINOIS REGIONAL WEATHER ROUNDUP
NATIONAL WEATHER SERVICE CHICAGO/ROMEOVILLE IL
900 PM CDT THU OCT 30 2014

NOTE: "FAIR" INDICATES FEW OR NO CLOUDS BELOW 12,000 FEET WITH NO
SIGNIFICANT WEATHER AND/OR OBSTRUCTIONS TO VISIBILITY.

* THESE STATIONS ARE NOT UNDER NWS QUALITY CONTROL. THEY ALSO MAY NOT
  REPORT WEATHER SUCH AS PRECIPITATION OR FOG.

ILZ001-002-007-009-015-016-024-310300-
NORTHWEST ILLINOIS

CITY           SKY/WX    TMP DP  RH WIND       PRES   REMARKS
MOLINE         CLOUDY    48  39  71 CALM      30.09R
STERLING*      CLOUDY    46  37  71 NW5       30.09R
SAVANNA*       CLOUDY    48  40  73 NW3       30.09S
$$

ILZ003-004-008-010-011-017-018-310300-
NORTH CENTRAL ILLINOIS

CITY           SKY/WX    TMP DP  RH WIND       PRES   REMARKS
ROCKFORD       CLOUDY    46  36  68 W3        30.08S
FREEPORT*      CLOUDY    45  36  72 W3        30.09S
ROCHELLE*      MOCLDY    42  37  82 CALM      30.08R
DE KALB*       MOCLDY    43  35  72 W6        30.07R
PERU*          CLOUDY    45  39  79 SW3       30.08S
$$

ILZ005-006-012>014-019>023-310300-
NORTHEAST ILLINOIS

CITY           SKY/WX    TMP DP  RH WIND       PRES   REMARKS
CHICAGO-OHARE  MOCLDY    46  36  68 W6        30.04F
CHICAGO-MIDWAY CLOUDY    49  37  63 W7        30.05F
AURORA         MOCLDY    45  36  70 W6        30.06F
LANSING*       CLOUDY    46  37  70 SW3       30.05F
JOLIET*        MOCLDY    46  36  69 W3        30.07S
WAUKEGAN       MOCLDY    45  34  65 W3        30.03F
DUPAGE AIRPORT MOCLDY    45  35  68 W6        30.05F
KANKAKEE*      MOCLDY    43  37  80 W3        30.07F
WHEELING       MOCLDY    49  35  58 W3        30.06F
MORRIS*        MOCLDY    44  39  82 W5        30.06S
ROMEOVILLE*    MOCLDY    45  37  73 W5        30.06F
NORTHERLY ISL    N/A     50  35  56 SW7         N/A
$$

LMZ740>746-310300-
SOUTHERN LAKE MICHIGAN

STATION/POSITION SKY/WX   TEMP    WIND        PRES    VSBY  WAVE
                          AIR SEA DIR/SP/G                  HT/PER
                          (F)     (DEG/KT/KT) (MB)    (MI)  (FT/S)
SOUTHERN BUOY              50 53  290/ 10/ 12 1017.0F         1/ 4
WAUKEGAN HARBOR            49     290/  5/  7   N/A
HARRISON CRIB              49     250/ 10/ 12   N/A
BURNHAM HARBOR             49     250/  6/  8   N/A
CALUMET HARBOR                                1016.4F
MICHIGAN CITY              50     230/ 13/ 15   N/A
$$

ILZ025>027-034>036-040-047-049-050-058-095>099-310300-
WEST-CENTRAL ILLINOIS

CITY           SKY/WX    TMP DP  RH WIND       PRES   REMARKS
QUINCY         CLOUDY    47  42  83 NE5       30.06R
GALESBURG*     CLOUDY    43  41  93 CALM      30.08S
MACOMB*        CLOUDY    44  40  86 N3        30.09S
JACKSONVILLE*  MOCLDY    47  43  85 E5        30.05S
PITTSFIELD*    CLOUDY    47  43  84 NE3       30.05F
$$

ILZ028>032-037-038-041>044-048-051>054-059>061-310300-
CENTRAL ILLINOIS

CITY           SKY/WX    TMP DP  RH WIND       PRES   REMARKS
PONTIAC        PTCLDY    42  40  93 CALM      30.08F
BLOOMINGTON    PTCLDY    44  43  97 N3        30.08S
DECATUR        LGT RAIN  46  44  93 E5        30.08F
PEORIA         MOCLDY    47  42  83 NE5       30.08S
LACON*         CLOUDY    42  41  95 CALM      30.08S
LINCOLN*       CLOUDY    48  43  83 SE3       30.05S
SPRINGFIELD    CLOUDY    50  42  74 E8        30.06S
TAYLORVILLE    CLOUDY    46  43  87 E7        30.05F
$$

ILZ033-039-045-046-055>057-062-063-310300-
EAST-CENTRAL ILLINOIS

CITY           SKY/WX    TMP DP  RH WIND       PRES   REMARKS
CHAMPAIGN      RAIN      46  43  89 SW6       30.06F
DANVILLE*      CLOUDY    46  41  81 CALM      30.04S
RANTOUL*       DRIZZLE   47  45  91 CALM      30.07S
MATTOON        LGT RAIN  47  42  83 N5        30.07R
PARIS*         CLOUDY    47  44  86 CALM      30.08S
$$

ILZ079-100>102-310300-
SOUTHWEST ILLINOIS

CITY           SKY/WX    TMP DP  RH WIND       PRES   REMARKS
BELLEVILLE     CLOUDY    51  51  99 S3        30.03S
CAHOKIA*       CLOUDY    52  48  86 S5        30.03S
SPARTA*        LGT RAIN  50  48  90 CALM      30.05R
$$

ILZ064>066-069>071-074>076-080>082-084>086-088>090-092>094-310300-
SOUTH-CENTRAL ILLINOIS

CITY           SKY/WX    TMP DP  RH WIND       PRES   REMARKS
CARBONDALE     CLOUDY    53  45  74 SE5       30.03F
CAIRO*         LGT RAIN  55  49  81 CALM      30.05S
EFFINGHAM*     LGT RAIN  48  44  86 NE3       30.06S
MARION         LGT RAIN  52  50  93 CALM      30.04F
MT. VERNON     CLOUDY    54  43  66 CALM      30.05S
CENTRALIA*     LGT RAIN  50  46  85 CALM      30.05S
SALEM*         LGT RAIN  51  48  89 CALM      30.05R
METROPOLIS*    RAIN      53  50  89 CALM      30.06R
$$

ILZ067-068-072-073-078-083-087-091-310300-
SOUTHEAST ILLINOIS

CITY           SKY/WX    TMP DP  RH WIND       PRES   REMARKS
LAWRENCEVILLE  CLOUDY    51  30  44 NE5       30.06S
FLORA*         DRIZZLE   51  45  78 CALM      30.05S
FAIRFIELD*     DRIZZLE   51  47  86 CALM      30.04S
HARRISBURG*    LGT RAIN  53  47  80 CALM      30.06S
ROBINSON*      CLOUDY    51  47  87 CALM      30.08S
CARMI*         LGT RAIN  53  47  77 CALM      30.05S
$$

ABBREVIATIONS USED IN REMARKS
   TC - TEMPERATURE IN CELSIUS
  WCI - WIND CHILL INDEX
   HX - HEAT INDEX
  VSB - VISIBILITY
$$




USA.gov is the U.S. government's official web portal to all federal, state and local government web resources and services.